This is the latest recevied weather packets stored in our database for station/object WC4PEM-7. If no packets are shown the sender has not sent any weather packets the latest 10 day(s).
| Time | Temp. | Humidity | Pressure | Rain* | Wind** | Luminosity | Snow |
|---|---|---|---|---|---|---|---|
| 1777566835 | 28.89° C | 62% | 1012 hPa | 0 mm | - | - | - |
| 1777566535 | 29.44° C | 59% | 1012.2 hPa | 0 mm | - | - | - |
| 1777566235 | 29.44° C | 59% | 1012.2 hPa | 0 mm | - | - | - |
| 1777566137 | 29.44° C | 57% | 1012.4 hPa | 0 mm | - | - | - |
| 1777565935 | 29.44° C | 57% | 1012.4 hPa | 0 mm | - | - | - |
| 1777565665 | 28.89° C | 62% | 1012.6 hPa | 0 mm | - | - | - |
| 1777565635 | 29.44° C | 58% | 1012.4 hPa | 0 mm | - | - | - |
| 1777565335 | 29.44° C | 59% | 1012.5 hPa | 0 mm | - | - | - |
| 1777565035 | 29.44° C | 60% | 1012.6 hPa | 0 mm | - | - | - |
| 1777564735 | 28.89° C | 62% | 1012.6 hPa | 0 mm | - | - | - |
| 1777564435 | 28.89° C | 63% | 1012.5 hPa | 0 mm | - | - | - |
| 1777564135 | 28.89° C | 61% | 1012.6 hPa | 0 mm | - | - | - |
| 1777564041 | 28.89° C | 62% | 1012.3 hPa | 0 mm | - | - | - |
| 1777563835 | 28.89° C | 63% | 1012.4 hPa | 0 mm | - | - | - |
| 1777563535 | 28.89° C | 62% | 1012.7 hPa | 0 mm | - | - | - |
| 1777563235 | 28.89° C | 62% | 1012.3 hPa | 0 mm | - | - | - |
| 1777563193 | 28.89° C | 61% | 1012.4 hPa | 0 mm | - | - | - |
| 1777562935 | 28.89° C | 61% | 1012.4 hPa | 0 mm | - | - | - |
| 1777562635 | 28.33° C | 63% | 1012.7 hPa | 0 mm | - | - | - |
| 1777562512 | 28.33° C | 62% | 1012.5 hPa | 0 mm | - | - | - |
| 1777562429 | 27.78° C | 64% | 1012.3 hPa | 0 mm | - | - | - |
| 1777562335 | 28.33° C | 62% | 1012.5 hPa | 0 mm | - | - | - |
| 1777562036 | 27.78° C | 64% | 1012.3 hPa | 0 mm | - | - | - |
| 1777561995 | 27.22° C | 69% | 1012.5 hPa | 0 mm | - | - | - |
| 1777561736 | 27.78° C | 63% | 1012.5 hPa | 0 mm | - | - | - |
* Rain latest hour (hover to see other rain measurements)
** Current wind speed in m/s (hover to see current wind gust speed)